Location: Unspecified
(58.7730°N, 5.8460°E)
Time: 16:32:26
(UTC+02:00)

Cosmos 1674 - Visible Passes

Search period start: 25 October 2014 00:00
Search period end: 03 November 2014 23:00
Orbit: 514 x 540 km, 82.5° (Epoch: 24 October)

Date Brightness Start Highest point End Pass type
(mag) Time Alt. Az. Time Alt. Az. Time Alt. Az.
25 Oct 3.9 06:29:46 10° S 06:33:34 47° E 06:37:25 10° NNE visible
26 Oct 4.0 05:18:25 10° SSE 05:22:12 44° E 05:26:00 10° NNE visible
26 Oct 3.7 06:54:50 10° SW 06:58:19 29° WNW 07:01:51 10° N visible
27 Oct 4.1 05:07:04 10° SSE 05:10:48 41° E 05:14:34 10° NNE visible
27 Oct 3.6 06:43:20 10° SW 06:46:53 31° WNW 06:50:28 10° N visible
28 Oct 4.2 04:55:42 10° SSE 04:59:23 38° E 05:03:06 10° NNE visible
28 Oct 3.5 06:31:49 10° SW 06:35:26 33° WNW 06:39:04 10° N visible
29 Oct 4.3 04:44:20 10° SSE 04:47:58 36° E 04:51:38 10° NNE visible
29 Oct 3.4 06:20:18 10° SW 06:23:57 35° WNW 06:27:38 10° N visible
30 Oct 4.5 04:32:57 10° SSE 04:36:32 33° E 04:40:08 10° NNE visible
30 Oct 3.3 06:08:46 10° SW 06:12:28 37° WNW 06:16:12 10° N visible
30 Oct 6.3 17:34:03 10° WNW 17:34:49 11° WNW 17:35:35 10° W visible
31 Oct 4.6 04:23:03 20° SE 04:25:04 31° E 04:28:36 10° NNE visible
31 Oct 3.2 05:58:22 18° SW 06:00:58 39° WNW 06:04:44 10° N visible
01 Nov 4.6 04:12:47 27° ESE 04:13:36 29° E 04:17:04 10° NNE visible
01 Nov 3.1 05:48:05 30° WSW 05:49:27 42° WNW 05:53:16 10° N visible
02 Nov 4.8 04:02:15 27° E 04:02:15 27° E 04:05:30 10° NNE visible
02 Nov 3.0 05:37:33 44° W 05:37:55 45° WNW 05:41:46 10° N visible
03 Nov 5.1 03:51:33 23° ENE 03:51:33 23° ENE 03:53:55 10° NNE visible
03 Nov 3.1 05:26:50 46° NW 05:26:50 46° NW 05:30:15 10° N visible
03 Nov 4.8 07:02:30 10° WNW 07:03:21 11° NW 07:04:13 10° NW visible
